Wind_Speed
43 43 43 43 43 43 43 43 43 44 44 43 43 43 43 43 44 44 43 43 43 42 42 41 41 41 41 40 40 40 40 40 39 39 39 38 37 37 36 36 36 35 35
44 44 45 45 45 45 45 45 45 45 46 45 45 45 45 45 45 45 45 45 45 44 43 43 43 43 43 43 42 42 42 42 41 40 40 40 39 38 38 37 37 37 37
45 46 46 46 46 46 46 46 46 47 47 47 47 47 47 47 47 47 47 47 47 46 45 45 45 44 44 44 44 44 43 43 42 41 41 41 41 40 39 39 39 39 38
46 47 47 47 47 47 47 47 48 48 49 49 49 48 48 48 48 47 48 49 49 48 48 47 46 46 45 45 45 45 45 44 44 43 43 43 43 42 41 40 40 39 40
47 47 47 47 48 48 48 49 49 50 49 50 50 50 49 49 49 48 49 50 50 50 50 49 48 47 46 46 45 46 46 46 45 44 44 44 43 44 43 42 42 41 41
46 47 47 48 48 48 48 49 49 50 50 50 50 51 51 51 51 50 51 51 51 51 51 50 50 48 48 47 46 46 47 47 46 46 45 45 44 44 43 43 44 43 43
45 46 46 47 47 48 48 49 50 50 50 51 51 51 51 52 52 52 52 52 52 51 51 51 51 50 49 49 48 48 48 48 48 47 47 46 46 45 45 45 44 44 44
44 44 45 45 47 48 48 49 50 50 51 51 51 52 52 52 52 52 52 52 53 53 52 52 52 51 51 50 50 49 49 49 49 48 48 47 46 46 46 46 46 44 44
43 44 44 45 46 46 47 48 49 49 50 50 51 52 52 52 52 52 53 53 53 53 53 53 53 53 52 52 51 51 50 51 50 49 48 47 47 47 47 47 47 46 46
42 43 44 44 45 46 46 47 47 48 49 50 51 52 53 53 53 53 53 53 54 54 54 53 54 54 53 53 52 52 52 52 51 50 49 48 49 49 49 49 48 48 47
42 43 43 44 45 45 46 47 47 48 49 50 51 52 53 53 54 54 53 54 54 54 54 54 54 54 54 54 54 53 53 53 53 52 51 50 50 49 49 49 50 49 49
42 42 43 44 45 45 46 47 48 48 49 49 50 52 53 53 53 53 54 55 55 54 54 54 55 55 55 54 54 54 55 54 54 53 52 51 51 51 51 51 51 51 50
41 41 42 43 44 44 45 46 48 48 49 50 50 51 52 52 53 53 53 54 54 54 55 54 54 54 54 54 54 54 54 54 54 54 53 52 51 51 52 52 52 52 51
40 41 41 42 43 44 45 46 47 48 49 49 50 50 51 52 53 53 53 53 54 54 54 53 54 54 54 53 54 55 54 54 54 54 54 53 52 51 52 52 52 51 52
39 40 41 42 43 43 44 45 46 47 48 49 49 49 50 51 52 52 52 53 53 54 55 54 54 54 54 54 54 55 55 55 54 54 54 53 52 52 52 52 51 51 51
39 39 40 41 42 43 44 45 46 47 47 48 49 49 50 50 51 51 52 53 54 55 55 54 54 54 54 55 55 55 55 54 54 54 53 53 52 51 51 51 51 51 51
39 39 40 41 42 43 44 45 46 46 47 48 48 49 49 50 50 50 51 53 54 55 55 54 55 54 54 55 55 55 55 54 53 53 52 52 51 50 50 50 50 50 51
39 40 40 41 41 42 43 44 45 45 46 47 47 48 49 49 49 50 50 51 52 53 53 53 54 54 54 54 54 54 54 54 53 53 52 51 50 49 50 50 50 50 51
39 39 40 40 41 42 42 43 43 44 44 45 45 46 47 47 48 48 49 49 50 51 51 52 53 52 52 52 52 54 53 53 53 52 52 51 50 50 50 51 50 50 50
39 40 40 41 41 42 42 43 43 43 44 45 45 45 45 45 46 46 47 47 47 48 48 49 50 50 50 50 51 52 52 52 53 53 52 51 51 51 51 51 50 50 50
39 40 40 41 41 42 43 43 43 44 44 44 44 44 45 44 44 44 44 44 45 45 45 46 47 48 48 49 49 50 51 51 52 52 52 52 52 51 51 51 51 50 50
38 38 39 40 41 42 42 43 43 44 43 42 42 42 42 43 42 41 41 42 42 43 43 44 44 45 45 46 47 48 49 49 50 50 50 50 50 51 51 51 50 50 51
37 37 38 38 39 39 40 42 42 42 42 41 40 40 40 40 40 39 39 39 40 40 40 41 42 42 43 44 45 45 46 47 48 49 49 50 49 50 51 51 50 50 51
35 35 36 36 37 38 39 40 40 40 39 38 38 38 38 38 37 37 37 37 38 38 38 39 40 41 42 42 43 44 45 46 47 48 48 49 49 49 49 49 49 49 50
33 34 35 36 36 37 36 37 37 36 36 37 37 37 37 36 35 35 34 35 35 35 36 37 38 39 40 41 43 44 44 45 46 47 47 47 47 48 48 48 48 48 48
32 33 33 34 34 34 33 34 34 34 34 35 35 34 34 34 34 33 33 33 34 34 34 36 37 38 39 40 42 43 44 44 45 46 46 46 47 47 47 47 47 47 47
Wind_Direction
257 258 258 259 259 259 260 261 261 262 262 261 261 262 262 262 262 262 262 262 262 261 261 261 261 261 261 262 262 262 262 262 263 261 261 260 260 260 259 258 257 256 256
258 258 258 259 259 260 260 261 262 262 262 262 262 262 262 262 262 262 262 262 261 262 261 261 261 262 262 262 263 262 262 261 261 261 261 260 259 258 258 257 257 255 255
258 258 259 259 260 261 261 261 262 262 262 263 263 262 262 262 263 263 262 262 261 261 260 260 260 261 263 263 262 262 261 260 260 261 261 260 259 258 257 256 255 255 254
259 259 260 260 260 260 261 261 262 262 262 262 262 262 262 262 263 263 262 261 261 260 260 260 261 261 263 263 263 262 261 260 260 260 260 260 260 260 257 254 253 254 254
260 260 260 260 261 261 261 261 262 262 262 261 261 261 261 261 263 264 263 261 260 259 260 260 260 261 262 262 262 262 261 260 260 260 260 260 260 260 258 255 254 254 255
261 261 260 261 261 261 261 261 261 261 261 261 261 261 261 262 263 264 263 261 259 259 259 259 260 260 261 262 262 261 261 260 259 260 260 260 259 259 258 256 255 255 255
262 261 261 261 262 262 261 261 261 262 262 261 261 261 261 262 263 263 262 260 258 258 258 259 260 260 261 261 261 260 259 258 259 259 260 260 259 258 257 257 256 255 255
262 262 262 262 263 263 262 263 263 263 262 262 261 261 262 262 262 263 261 259 258 257 258 259 259 260 260 260 261 260 259 258 258 259 259 259 258 257 257 257 256 255 254
264 264 264 264 264 264 264 263 263 263 263 262 262 262 261 262 262 262 261 259 258 257 258 259 260 260 259 260 260 260 259 258 257 257 258 257 256 256 256 256 256 255 255
264 265 265 265 264 264 264 264 264 263 264 263 263 262 261 261 261 262 261 259 258 258 258 259 259 258 259 259 259 258 258 257 256 256 256 257 256 256 256 256 256 256 257
265 265 265 265 265 265 265 265 265 265 265 265 264 262 261 262 262 262 261 260 259 258 258 259 258 258 258 258 258 257 257 257 256 255 256 256 256 256 256 256 256 256 257
267 267 267 266 266 266 266 266 267 267 267 266 265 264 263 263 262 262 262 260 259 258 258 259 259 258 258 257 257 257 257 257 256 255 255 255 256 256 256 256 256 257 257
269 269 269 268 267 267 268 268 268 269 268 268 267 266 266 265 263 264 263 261 259 258 258 259 259 259 258 257 257 257 257 256 255 255 255 255 255 256 256 257 257 258 257
270 269 269 269 269 269 269 270 270 270 270 269 268 268 267 267 266 265 263 262 259 259 259 259 259 258 258 258 258 257 257 256 255 255 255 255 255 255 256 256 257 258 258
270 270 270 270 270 271 271 272 272 272 272 271 270 269 269 268 268 266 264 262 261 260 260 260 259 258 258 258 258 257 257 256 255 254 255 255 255 255 255 257 257 258 258
271 271 272 272 272 272 273 273 273 273 272 271 270 270 270 269 268 267 265 263 262 261 261 261 260 259 258 257 257 257 256 255 255 254 254 255 254 254 255 256 257 257 258
272 272 273 273 273 274 274 274 273 273 273 272 271 271 270 270 269 269 267 265 263 261 261 261 260 259 259 258 256 256 255 255 254 253 253 253 253 254 255 255 257 258 258
273 273 273 273 274 275 275 274 274 274 273 272 272 271 271 270 270 269 268 266 264 262 261 260 260 259 259 257 256 255 255 254 253 252 252 252 252 253 255 256 256 257 257
275 275 274 273 274 274 275 275 274 274 273 273 273 272 272 271 271 270 269 267 266 263 260 259 259 259 258 256 255 254 254 253 251 251 251 252 253 254 255 256 257 257 257
277 277 276 275 275 275 275 275 275 275 274 274 274 273 273 273 272 272 271 268 266 264 261 260 259 258 257 255 254 253 253 252 250 251 251 253 254 254 255 257 257 256 256
278 278 278 277 277 277 275 275 276 276 276 276 275 275 274 274 273 271 270 268 266 264 262 261 260 259 257 255 255 254 252 252 251 251 251 253 254 255 256 256 257 256 255
279 279 279 279 279 279 277 277 277 277 277 277 276 275 275 275 273 271 269 268 267 265 262 260 259 259 258 256 255 254 253 252 252 253 253 254 255 255 255 255 256 256 255
281 280 280 280 281 280 280 280 279 278 277 277 276 276 276 275 273 271 270 268 267 265 261 259 259 258 257 255 255 254 254 254 254 255 255 255 255 255 254 254 255 255 256
282 281 282 281 281 281 282 282 281 279 278 277 277 276 276 276 273 272 270 268 266 264 261 258 258 257 256 255 254 254 254 254 255 255 255 255 255 255 254 254 254 255 255
283 282 283 283 282 283 283 283 282 280 279 279 279 278 276 275 273 272 270 268 267 266 262 259 259 259 257 256 255 254 254 255 256 256 256 255 254 254 254 253 253 254 254
285 284 284 284 284 283 283 283 283 282 281 280 280 279 277 275 272 269 270 270 269 267 265 262 261 261 259 258 256 256 255 255 256 255 255 256 255 253 252 252 252 253 254
Height
5706 5707 5709 5710 5711 5713 5714 5714 5715 5716 5717 5718 5720 5720 5721 5722 5723 5724 5725 5726 5727 5728 5730 5731 5732 5733 5735 5736 5737 5739 5740 5741 5742 5744 5745 5746 5747 5748 5749 5751 5753 5754 5756
5694 5696 5697 5698 5700 5701 5702 5703 5704 5705 5706 5707 5708 5709 5710 5711 5712 5712 5714 5715 5716 5717 5718 5720 5721 5723 5724 5725 5726 5728 5729 5730 5731 5733 5734 5736 5738 5739 5740 5741 5743 5745 5747
5682 5683 5685 5686 5688 5689 5690 5691 5692 5693 5694 5695 5696 5697 5698 5699 5700 5701 5702 5702 5703 5705 5706 5708 5710 5711 5712 5714 5715 5716 5718 5719 5721 5721 5723 5725 5727 5729 5731 5732 5734 5735 5737
5670 5671 5672 5674 5675 5676 5677 5678 5679 5680 5681 5682 5683 5684 5686 5687 5688 5688 5689 5690 5691 5692 5694 5696 5697 5699 5700 5702 5703 5704 5706 5707 5709 5710 5712 5713 5715 5717 5719 5722 5723 5725 5727
5657 5658 5660 5661 5662 5663 5664 5665 5666 5667 5668 5669 5670 5671 5672 5673 5674 5675 5676 5677 5678 5679 5681 5683 5685 5686 5688 5689 5691 5692 5693 5695 5697 5699 5700 5702 5703 5704 5707 5710 5713 5714 5716
5645 5646 5647 5648 5649 5650 5651 5651 5653 5654 5654 5655 5656 5657 5659 5659 5660 5661 5662 5663 5664 5666 5667 5670 5672 5673 5675 5677 5678 5679 5681 5682 5684 5686 5688 5690 5692 5693 5694 5697 5701 5703 5705
5632 5632 5633 5635 5635 5636 5637 5638 5639 5640 5640 5641 5642 5643 5644 5645 5646 5647 5648 5649 5651 5652 5654 5656 5658 5660 5661 5663 5664 5666 5668 5669 5672 5674 5675 5677 5679 5681 5682 5685 5688 5691 5693
5619 5620 5621 5622 5622 5623 5623 5624 5624 5626 5626 5627 5628 5629 5629 5630 5631 5632 5633 5634 5636 5638 5640 5642 5644 5645 5647 5649 5651 5652 5654 5656 5658 5660 5662 5664 5666 5668 5670 5672 5675 5678 5681
5607 5608 5609 5609 5609 5609 5610 5610 5610 5611 5612 5612 5613 5614 5614 5615 5616 5617 5618 5620 5621 5624 5626 5627 5629 5631 5633 5635 5636 5638 5640 5642 5644 5647 5649 5651 5653 5655 5657 5660 5662 5665 5668
5595 5596 5596 5596 5596 5596 5596 5596 5596 5597 5597 5597 5598 5598 5599 5600 5601 5602 5603 5605 5607 5609 5610 5612 5614 5616 5618 5620 5622 5624 5626 5628 5631 5633 5636 5638 5640 5642 5644 5647 5649 5651 5654
5583 5583 5583 5583 5583 5583 5583 5583 5583 5583 5583 5583 5583 5584 5584 5586 5586 5587 5588 5590 5591 5593 5595 5597 5599 5601 5603 5605 5606 5609 5611 5613 5616 5619 5621 5624 5626 5629 5631 5633 5636 5638 5641
5571 5571 5571 5571 5570 5570 5570 5570 5570 5570 5569 5569 5569 5569 5570 5570 5571 5572 5573 5574 5576 5578 5580 5581 5583 5585 5587 5589 5591 5593 5596 5598 5601 5604 5607 5610 5612 5615 5617 5619 5622 5624 5626
5559 5559 5559 5558 5558 5558 5557 5557 5557 5556 5556 5555 5555 5555 5555 5555 5556 5557 5558 5558 5560 5562 5564 5566 5568 5570 5571 5573 5575 5577 5580 5583 5586 5589 5592 5595 5598 5601 5603 5606 5608 5610 5612
5547 5547 5547 5546 5546 5545 5545 5544 5543 5542 5542 5541 5541 5540 5540 5540 5540 5541 5542 5543 5545 5547 5548 5550 5552 5554 5556 5558 5559 5561 5564 5567 5570 5573 5577 5580 5583 5586 5589 5591 5594 5596 5597
5536 5535 5535 5534 5533 5533 5532 5531 5530 5529 5528 5527 5527 5526 5526 5525 5525 5526 5526 5528 5529 5531 5533 5535 5537 5538 5540 5543 5544 5546 5548 5551 5555 5558 5562 5565 5568 5571 5574 5577 5579 5581 5583
5524 5524 5523 5522 5521 5520 5519 5518 5517 5516 5514 5513 5513 5512 5511 5511 5511 5511 5511 5512 5513 5515 5517 5519 5521 5523 5525 5527 5528 5531 5533 5536 5540 5543 5547 5550 5554 5557 5560 5562 5565 5567 5569
5513 5512 5511 5510 5509 5508 5506 5505 5504 5502 5500 5499 5498 5497 5497 5496 5496 5496 5495 5496 5497 5499 5501 5503 5505 5507 5509 5511 5513 5515 5518 5522 5525 5529 5533 5536 5540 5543 5546 5548 5550 5553 5555
5501 5500 5499 5498 5496 5495 5493 5492 5490 5488 5486 5485 5484 5483 5482 5482 5481 5480 5480 5481 5481 5483 5485 5487 5489 5492 5494 5496 5498 5500 5503 5507 5511 5514 5518 5522 5526 5529 5532 5534 5537 5539 5541
5490 5488 5487 5486 5484 5482 5480 5478 5477 5475 5473 5471 5470 5469 5468 5467 5467 5466 5466 5466 5466 5468 5469 5472 5474 5476 5479 5481 5483 5485 5489 5493 5497 5501 5504 5508 5512 5515 5518 5520 5523 5525 5527
5478 5476 5475 5474 5472 5470 5467 5466 5464 5462 5460 5458 5456 5455 5454 5453 5453 5452 5452 5452 5452 5453 5454 5457 5459 5461 5464 5467 5469 5471 5474 5479 5484 5487 5491 5494 5497 5500 5502 5505 5508 5511 5514
5466 5465 5463 5461 5459 5457 5455 5453 5451 5449 5447 5445 5443 5442 5441 5440 5440 5439 5438 5438 5438 5440 5441 5443 5445 5448 5450 5453 5455 5457 5460 5464 5468 5472 5476 5480 5483 5485 5488 5490 5493 5497 5499
5455 5453 5451 5449 5447 5444 5443 5441 5439 5437 5434 5433 5431 5430 5428 5427 5426 5426 5425 5425 5425 5426 5427 5429 5432 5434 5436 5439 5442 5444 5447 5451 5454 5458 5462 5465 5468 5471 5473 5476 5479 5482 5484
5444 5441 5439 5437 5435 5433 5430 5428 5426 5424 5422 5420 5419 5417 5416 5415 5414 5413 5413 5413 5413 5413 5415 5417 5419 5421 5423 5426 5429 5432 5434 5437 5440 5444 5448 5451 5453 5455 5458 5461 5464 5467 5469
5433 5431 5428 5426 5424 5422 5419 5417 5414 5412 5410 5409 5408 5406 5405 5403 5402 5401 5401 5401 5401 5402 5403 5405 5408 5410 5412 5414 5416 5419 5421 5424 5427 5430 5433 5436 5438 5440 5443 5446 5449 5452 5455
5423 5420 5418 5416 5413 5411 5409 5406 5404 5402 5400 5398 5397 5395 5394 5392 5392 5391 5391 5391 5391 5391 5393 5395 5396 5398 5401 5402 5404 5406 5409 5412 5414 5417 5419 5422 5424 5426 5429 5432 5435 5438 5441
5413 5411 5408 5406 5404 5401 5399 5397 5394 5392 5391 5389 5387 5385 5383 5382 5382 5382 5381 5381 5381 5381 5382 5384 5386 5387 5389 5391 5392 5394 5396 5398 5401 5403 5405 5408 5410 5413 5416 5419 5422 5425 5427